Regional Weather Roundup
Issued by NWS

Home | Current Version | Previous Version | Text Only | Print | Product List | Glossary Off
Versions: 1 2 3 4 5 6 7 8 9 10 11 12 13 14 15 16 17 18 19 20 21 22 23 24 25 26 27 28 29 30 31 32 33 34 35 36 37 38 39 40 41 42 43 44 45 46 47 48 49 50

744
ASUS45 KPSR 241410
RWRAZ

ARIZONA HOURLY REGIONAL WEATHER ROUNDUP
NATIONAL WEATHER SERVICE PHOENIX AZ
700 AM MST SAT JUN 24 2017

NOTE: FAIR INDICATES FEW OR NO CLOUDS BELOW 12,000 FEET WITH NO
SIGNIFICANT WEATHER AND/OR OBSTRUCTIONS TO VISIBILITY.

AZZ001>003-036-241500-
NORTHWEST ARIZONA

CITY           SKY/WX    TMP DP  RH WIND       PRES   REMARKS
BULLHEAD CITY  SUNNY     91  46  21 CALM      29.76R
KINGMAN        SUNNY     85  40  20 E3        29.99R
$$

AZZ004>008-015-016-018-241500-
NORTH CENTRAL ARIZONA

CITY           SKY/WX    TMP DP  RH WIND       PRES   REMARKS
GRAND CANYON   SUNNY     77  23  13 NE7       30.28R
PRESCOTT       PTSUNNY   71  41  33 S3        30.13R
FLAGSTAFF      SUNNY     65  36  34 CALM      30.30R
PAYSON         SUNNY     81  34  18 CALM      30.15R
PAGE           SUNNY     80  22  11 E3        30.11R
$$

AZZ009>014-017-241500-
NORTHEAST ARIZONA

CITY           SKY/WX    TMP DP  RH WIND       PRES   REMARKS
WINSLOW        SUNNY     77  27  15 NW6       30.15R
SAINT JOHNS    SUNNY     70  37  29 SE6       30.19R
WINDOW ROCK    SUNNY     59  32  36 CALM      30.31R
SHOW LOW       SUNNY     68  30  24 W5        30.25R
$$

AZZ540-542>544-546-548-241500-
GREATER PHOENIX AREA

CITY           SKY/WX    TMP DP  RH WIND       PRES   REMARKS
PHOENIX        MOSUNNY   91  48  22 NW3       29.76R
LUKE AFB       SUNNY     89  46  22 NE3       29.76R
DEER VALLEY    SUNNY     87  48  25 CALM      29.79R HAZE
SCOTTSDALE     SUNNY     91  48  22 NE3       29.80S
MESA-FALCON    SUNNY     88  52  29 NE5       29.80S
CHANDLER       SUNNY     84  52  32 NE6       29.78
$$

AZZ539-553-241500-
SOUTHWEST MARICOPA COUNTY AND PINAL COUNTY

CITY           SKY/WX    TMP DP  RH WIND       PRES   REMARKS
CASA GRANDE    SUNNY     86  50  28 E3        29.81R
GILA BEND      FAIR      88  51  27 CALM      29.76R
$$

AZZ503-504-507>509-241500-
SOUTHEAST ARIZONA

CITY           SKY/WX    TMP DP  RH WIND       PRES   REMARKS
TUCSON         SUNNY     86  45  23 SE5       29.93R
DAVIS-MONTHAN  MOSUNNY   85  45  24 SE5       29.92R
RYAN FIELD     SUNNY    N/A N/A N/A CALM      29.92R
NOGALES        MOSUNNY   79  45  29 CALM      30.03R
SIERRA VISTA   CLOUDY    84  38  19 CALM      30.10R
DOUGLAS        MOSUNNY   83  39  21 N3        30.04R
SAFFORD        SUNNY     87  44  22 SE12      29.96R
$$

AZZ532-241500-
SOUTHWEST ARIZONA

CITY           SKY/WX    TMP DP  RH WIND       PRES   REMARKS
YUMA           MOSUNNY   85  53  33 SE3       29.73R
$$

CAZ041-043-047-048-061-525>527-560>570-241500-
SOUTHERN CALIFORNIA

CITY           SKY/WX    TMP DP  RH WIND       PRES   REMARKS
DOWNTOWN L.A.  PTSUNNY   65  60  84 CALM      29.88R
L.A. AIRPORT   CLOUDY    63  61  93 S9        29.90R FOG
SAN DIEGO      CLOUDY    65  62  90 NW8       29.92R FOG
BURBANK        MOSUNNY   64  58  80 CALM      29.88R
ONTARIO        PTSUNNY   68  60  75 CALM      29.88F
RIVERSIDE      PTSUNNY   67  61  81 CALM      29.89S
PALM SPRINGS   MOSUNNY   89  57  33 VRB3      29.76R
EL CENTRO NAS  SUNNY     79  68  69 E7        29.73R
IMPERIAL       SUNNY     79  70  74 E5        29.71R
BLYTHE         SUNNY     87  54  32 SW6       29.73R
NEEDLES        MOSUNNY   94  47  20 CALM      29.77R
$$

NVZ020-UTZ003-241500-
SOUTHERN NEVADA-UTAH

CITY           SKY/WX    TMP DP  RH WIND       PRES   REMARKS
LAS VEGAS      MOSUNNY   93  19   7 NE10      29.90R
SALT LAKE CITY SUNNY     68  38  33 SE7       30.20R
$$

NMZ009-TXZ055-241500-
NEW MEXICO-WEST TEXAS

CITY           SKY/WX    TMP DP  RH WIND       PRES   REMARKS
ALBUQUERQUE    MOSUNNY   71  52  50 E12       30.27R
EL PASO        MOSUNNY   82  54  37 N9        30.10R
$$


........................KEY........................
SKY/WX - SKY CONDITION/WEATHER
TMP    - TEMPERATURE IN FAHRENHEIT
DP     - DEW POINT IN FAHRENHEIT
RH     - RELATIVE HUMIDITY IN PERCENT
WIND   - DIRECTION AND SPEED IN MILES PER HOUR (MPH)
VRB    - VARIABLE WIND DIRECTION
PRES   - MEAN SEA LEVEL PRESSURE IN INCHES OF MERCURY
         F - FALLING PRESSURE   R - RISING PRESSURE
         S - STEADY PRESSURE
VSB    - VISIBILITY IN MILES
HX     - HEAT INDEX IN FAHRENHEIT
WCI    - WIND CHILL INDEX IN FAHRENHEIT
TC     - TEMPERATURE IN CELSIUS WHICH IS ALSO KNOWN AS
         TEMPERATURE IN CENTIGRADE
AFB    - AIR FORCE BASE
         LUKE AFB IS LUKE AIR FORCE BASE
         DAVIS-MONTHAN IS DAVIS-MONTHAN AIR FORCE BASE
NAS    - NAVAL AIR STATION
         EL CENTRO NAS IS EL CENTRO NAVAL AIR STATION
N/A    - NOT AVAILABLE





USA.gov is the U.S. government's official web portal to all federal, state and local government web resources and services.